Time,TemperatureF,DewpointF,PressureIn,WindDirection,WindDirectionDegrees,WindSpeedMPH,WindSpeedGustMPH,Humidity,HourlyPrecipIn,Conditions,Clouds,dailyrainin,SoftwareType,DateUTC
2013-07-24 00:01:00,77.4,74.9,29.74,WSW,248,0.0,0.0,92,0.00,,---,0.00,VWS V14.01,2013-07-24 04:01:00,
2013-07-24 00:06:00,77.3,74.8,29.74,WSW,248,0.0,0.0,92,0.00,,---,0.00,VWS V14.01,2013-07-24 04:06:00,
2013-07-24 00:11:00,77.3,74.8,29.74,WSW,248,0.0,0.0,92,0.00,,---,0.00,VWS V14.01,2013-07-24 04:11:00,
2013-07-24 00:16:00,77.3,74.8,29.74,WSW,248,0.0,0.0,92,0.00,,---,0.00,VWS V14.01,2013-07-24 04:16:00,
2013-07-24 00:21:00,77.3,74.8,29.74,WSW,248,0.0,0.0,92,0.00,,---,0.00,VWS V14.01,2013-07-24 04:21:00,
2013-07-24 00:26:00,77.3,74.8,29.74,WSW,248,0.0,0.0,92,0.00,,---,0.00,VWS V14.01,2013-07-24 04:26:00,
2013-07-24 00:31:00,77.3,74.8,29.74,WSW,248,0.0,0.0,92,0.00,,---,0.00,VWS V14.01,2013-07-24 04:31:00,
2013-07-24 00:36:00,77.3,74.8,29.74,WSW,248,0.0,0.0,92,0.00,,---,0.00,VWS V14.01,2013-07-24 04:36:00,
2013-07-24 00:41:00,77.3,74.8,29.74,WSW,248,0.0,0.0,92,0.00,,---,0.00,VWS V14.01,2013-07-24 04:41:00,
2013-07-24 00:46:00,77.3,74.8,29.74,WSW,248,0.0,0.0,92,0.00,,---,0.00,VWS V14.01,2013-07-24 04:46:00,
2013-07-24 00:51:00,77.2,74.7,29.74,WSW,248,0.0,0.0,92,0.00,,---,0.00,VWS V14.01,2013-07-24 04:51:00,
2013-07-24 00:56:00,77.2,74.7,29.74,WSW,248,1.0,1.0,92,0.00,,---,0.00,VWS V14.01,2013-07-24 04:56:00,
2013-07-24 01:01:00,77.2,74.7,29.74,WSW,248,0.0,0.0,92,0.00,,---,0.00,VWS V14.01,2013-07-24 05:01:00,
2013-07-24 01:06:00,77.2,74.7,29.74,WSW,248,0.0,0.0,92,0.00,,---,0.00,VWS V14.01,2013-07-24 05:06:00,
2013-07-24 01:11:00,77.1,74.6,29.73,WSW,248,0.0,0.0,92,0.00,,---,0.00,VWS V14.01,2013-07-24 05:11:00,
2013-07-24 01:16:00,77.1,74.6,29.73,WSW,248,0.0,0.0,92,0.00,,---,0.00,VWS V14.01,2013-07-24 05:16:00,
2013-07-24 01:21:00,77.1,74.6,29.73,WSW,248,0.0,0.0,92,0.00,,---,0.00,VWS V14.01,2013-07-24 05:21:00,
2013-07-24 01:26:00,77.0,74.5,29.73,WSW,248,0.0,0.0,92,0.00,,---,0.00,VWS V14.01,2013-07-24 05:26:00,
2013-07-24 01:31:00,77.0,74.5,29.73,WSW,248,0.0,0.0,92,0.00,,---,0.00,VWS V14.01,2013-07-24 05:31:00,
2013-07-24 01:36:00,76.9,74.4,29.72,WSW,248,0.0,0.0,92,0.00,,---,0.00,VWS V14.01,2013-07-24 05:36:00,
2013-07-24 01:41:00,76.9,74.4,29.72,WSW,248,0.0,0.0,92,0.00,,---,0.00,VWS V14.01,2013-07-24 05:41:00,
2013-07-24 01:46:00,76.9,74.4,29.72,WSW,248,0.0,0.0,92,0.00,,---,0.00,VWS V14.01,2013-07-24 05:46:00,
2013-07-24 01:51:00,76.8,74.3,29.72,WSW,248,0.0,0.0,92,0.00,,---,0.00,VWS V14.01,2013-07-24 05:51:00,
2013-07-24 01:56:00,76.7,74.2,29.72,WSW,248,0.0,0.0,92,0.00,,---,0.00,VWS V14.01,2013-07-24 05:56:00,
2013-07-24 02:01:00,76.6,74.1,29.71,WSW,248,0.0,0.0,92,0.00,,---,0.00,VWS V14.01,2013-07-24 06:01:00,
2013-07-24 02:06:00,76.5,74.0,29.72,WSW,248,0.0,0.0,92,0.00,,---,0.00,VWS V14.01,2013-07-24 06:06:00,
2013-07-24 02:11:00,76.4,73.9,29.71,WSW,248,0.0,0.0,92,0.00,,---,0.00,VWS V14.01,2013-07-24 06:11:00,
2013-07-24 02:16:00,76.3,73.8,29.71,WSW,248,0.0,0.0,92,0.00,,---,0.00,VWS V14.01,2013-07-24 06:16:00,
2013-07-24 02:21:00,76.2,73.7,29.71,WSW,248,0.0,0.0,92,0.00,,---,0.00,VWS V14.01,2013-07-24 06:21:00,
2013-07-24 02:26:00,76.1,73.6,29.71,WSW,248,0.0,0.0,92,0.00,,---,0.00,VWS V14.01,2013-07-24 06:26:00,
2013-07-24 02:31:00,76.1,73.6,29.71,WSW,248,0.0,0.0,92,0.00,,---,0.00,VWS V14.01,2013-07-24 06:31:00,
2013-07-24 02:36:00,76.0,73.5,29.71,WSW,248,0.0,0.0,92,0.00,,---,0.00,VWS V14.01,2013-07-24 06:36:00,
2013-07-24 02:41:00,75.8,73.3,29.70,WSW,248,0.0,0.0,92,0.00,,---,0.00,VWS V14.01,2013-07-24 06:41:00,
2013-07-24 02:46:00,75.7,73.2,29.71,WSW,248,0.0,0.0,92,0.00,,---,0.00,VWS V14.01,2013-07-24 06:46:00,
2013-07-24 02:51:00,75.6,73.1,29.70,WSW,248,0.0,0.0,92,0.00,,---,0.00,VWS V14.01,2013-07-24 06:51:00,
2013-07-24 02:56:00,75.5,73.0,29.70,WSW,248,0.0,0.0,92,0.00,,---,0.00,VWS V14.01,2013-07-24 06:56:00,
2013-07-24 03:02:00,75.4,72.9,29.70,WSW,248,0.0,0.0,92,0.00,,---,0.00,VWS V14.01,2013-07-24 07:02:00,
2013-07-24 03:07:00,75.4,72.9,29.70,WSW,248,0.0,0.0,92,0.00,,---,0.00,VWS V14.01,2013-07-24 07:07:00,
2013-07-24 03:12:00,75.3,73.1,29.70,WSW,248,0.0,0.0,93,0.00,,---,0.00,VWS V14.01,2013-07-24 07:12:00,
2013-07-24 03:17:00,75.1,72.9,29.70,WSW,248,0.0,1.0,93,0.00,,---,0.00,VWS V14.01,2013-07-24 07:17:00,
2013-07-24 03:22:00,75.0,73.2,29.70,WSW,248,0.0,0.0,94,0.00,,---,0.00,VWS V14.01,2013-07-24 07:22:00,
2013-07-24 03:27:00,74.9,73.1,29.70,WSW,248,0.0,0.0,94,0.00,,---,0.00,VWS V14.01,2013-07-24 07:27:00,
2013-07-24 03:32:00,74.8,73.0,29.70,WSW,248,0.0,0.0,94,0.00,,---,0.00,VWS V14.01,2013-07-24 07:32:00,
2013-07-24 03:37:00,74.8,73.0,29.70,WSW,248,0.0,0.0,94,0.00,,---,0.00,VWS V14.01,2013-07-24 07:37:00,
2013-07-24 03:42:00,74.7,72.9,29.69,WSW,248,0.0,0.0,94,0.00,,---,0.00,VWS V14.01,2013-07-24 07:42:00,
2013-07-24 03:47:00,74.7,73.2,29.69,WSW,248,0.0,1.0,95,0.00,,---,0.00,VWS V14.01,2013-07-24 07:47:00,
2013-07-24 03:52:00,74.7,73.2,29.69,WSW,248,0.0,0.0,95,0.00,,---,0.00,VWS V14.01,2013-07-24 07:52:00,
2013-07-24 03:57:00,74.7,73.2,29.69,WSW,248,0.0,0.0,95,0.00,,---,0.00,VWS V14.01,2013-07-24 07:57:00,
2013-07-24 04:02:00,74.7,73.2,29.69,WSW,248,0.0,0.0,95,0.00,,---,0.00,VWS V14.01,2013-07-24 08:02:00,
2013-07-24 04:07:00,74.6,73.1,29.69,WSW,248,0.0,0.0,95,0.00,,---,0.00,VWS V14.01,2013-07-24 08:07:00,
2013-07-24 04:12:00,74.6,73.1,29.69,WSW,248,0.0,0.0,95,0.00,,---,0.00,VWS V14.01,2013-07-24 08:12:00,
2013-07-24 04:17:00,74.6,73.1,29.69,WSW,248,0.0,0.0,95,0.00,,---,0.00,VWS V14.01,2013-07-24 08:17:00,
2013-07-24 04:22:00,74.6,73.1,29.68,WSW,248,0.0,0.0,95,0.00,,---,0.00,VWS V14.01,2013-07-24 08:22:00,
2013-07-24 04:27:00,74.5,73.0,29.69,WSW,248,0.0,0.0,95,0.00,,---,0.00,VWS V14.01,2013-07-24 08:27:00,
2013-07-24 04:32:00,74.4,72.9,29.69,WSW,248,0.0,0.0,95,0.00,,---,0.00,VWS V14.01,2013-07-24 08:32:00,
2013-07-24 04:37:00,74.4,72.9,29.69,WSW,248,0.0,0.0,95,0.00,,---,0.00,VWS V14.01,2013-07-24 08:37:00,
2013-07-24 04:42:00,74.3,72.8,29.69,WSW,248,0.0,0.0,95,0.00,,---,0.00,VWS V14.01,2013-07-24 08:42:00,
2013-07-24 04:47:00,74.3,72.8,29.69,WSW,248,0.0,1.0,95,0.00,,---,0.00,VWS V14.01,2013-07-24 08:47:00,
2013-07-24 04:52:00,74.3,72.8,29.69,WSW,248,0.0,0.0,95,0.00,,---,0.00,VWS V14.01,2013-07-24 08:52:00,
2013-07-24 04:57:00,74.2,72.7,29.69,WSW,248,0.0,0.0,95,0.00,,---,0.00,VWS V14.01,2013-07-24 08:57:00,
2013-07-24 05:02:00,74.2,72.7,29.69,WSW,248,0.0,0.0,95,0.00,,---,0.00,VWS V14.01,2013-07-24 09:02:00,
2013-07-24 05:07:00,74.1,72.6,29.70,WSW,248,0.0,0.0,95,0.00,,---,0.00,VWS V14.01,2013-07-24 09:07:00,
2013-07-24 05:12:00,74.0,72.5,29.70,WSW,248,0.0,0.0,95,0.00,,---,0.00,VWS V14.01,2013-07-24 09:12:00,
2013-07-24 05:17:00,73.9,72.4,29.70,WSW,248,0.0,0.0,95,0.00,,---,0.00,VWS V14.01,2013-07-24 09:17:00,
2013-07-24 05:22:00,73.9,72.4,29.70,WSW,248,0.0,0.0,95,0.00,,---,0.00,VWS V14.01,2013-07-24 09:22:00,
2013-07-24 05:27:00,73.8,72.3,29.70,WSW,248,0.0,0.0,95,0.00,,---,0.00,VWS V14.01,2013-07-24 09:27:00,
2013-07-24 05:32:00,73.7,72.2,29.70,WSW,248,0.0,0.0,95,0.00,,---,0.00,VWS V14.01,2013-07-24 09:32:00,
2013-07-24 05:37:00,73.7,72.2,29.70,WSW,248,0.0,0.0,95,0.00,,---,0.00,VWS V14.01,2013-07-24 09:37:00,
2013-07-24 05:42:00,73.6,72.1,29.70,WSW,250,0.0,0.0,95,0.00,,---,0.00,VWS V14.01,2013-07-24 09:42:00,
2013-07-24 05:47:00,73.5,72.0,29.70,WSW,241,0.0,0.0,95,0.00,,---,0.00,VWS V14.01,2013-07-24 09:47:00,
2013-07-24 05:52:00,73.4,71.9,29.70,WSW,241,0.0,0.0,95,0.00,,---,0.00,VWS V14.01,2013-07-24 09:52:00,
2013-07-24 05:57:00,73.3,71.8,29.71,North,5,0.0,0.0,95,0.00,,---,0.00,VWS V14.01,2013-07-24 09:57:00,
2013-07-24 06:02:00,73.3,71.8,29.71,North,5,0.0,0.0,95,0.00,,---,0.00,VWS V14.01,2013-07-24 10:02:00,
2013-07-24 06:07:00,73.2,71.7,29.71,North,10,0.0,0.0,95,0.00,,---,0.00,VWS V14.01,2013-07-24 10:07:00,
2013-07-24 06:12:00,73.1,71.6,29.71,North,9,0.0,0.0,95,0.00,,---,0.00,VWS V14.01,2013-07-24 10:12:00,
2013-07-24 06:17:00,73.1,71.6,29.72,ENE,62,0.0,0.0,95,0.00,,---,0.00,VWS V14.01,2013-07-24 10:17:00,
2013-07-24 06:22:00,73.1,71.9,29.72,ENE,62,0.0,0.0,96,0.00,,---,0.00,VWS V14.01,2013-07-24 10:22:00,
2013-07-24 06:27:00,73.1,71.9,29.72,NNW,342,0.0,1.0,96,0.00,,---,0.00,VWS V14.01,2013-07-24 10:27:00,
2013-07-24 06:32:00,73.0,71.8,29.72,NW,322,0.0,1.0,96,0.00,,---,0.00,VWS V14.01,2013-07-24 10:32:00,
2013-07-24 06:37:00,73.1,71.9,29.72,NW,322,0.0,0.0,96,0.00,,---,0.00,VWS V14.01,2013-07-24 10:37:00,
2013-07-24 06:42:00,73.1,71.9,29.72,NW,322,0.0,0.0,96,0.00,,---,0.00,VWS V14.01,2013-07-24 10:42:00,
2013-07-24 06:47:00,73.1,71.9,29.72,NNE,29,0.0,0.0,96,0.00,,---,0.00,VWS V14.01,2013-07-24 10:47:00,
2013-07-24 06:52:00,73.2,72.0,29.72,SE,144,0.0,0.0,96,0.00,,---,0.00,VWS V14.01,2013-07-24 10:52:00,
2013-07-24 06:57:00,73.2,72.0,29.72,SE,144,0.0,0.0,96,0.00,,---,0.00,VWS V14.01,2013-07-24 10:57:00,
2013-07-24 07:02:00,73.3,72.1,29.72,SE,144,0.0,0.0,96,0.00,,---,0.00,VWS V14.01,2013-07-24 11:02:00,
2013-07-24 07:07:00,73.4,72.2,29.72,SE,144,0.0,0.0,96,0.00,,---,0.00,VWS V14.01,2013-07-24 11:07:00,
2013-07-24 07:12:00,73.5,72.3,29.73,SE,144,0.0,0.0,96,0.00,,---,0.00,VWS V14.01,2013-07-24 11:12:00,
2013-07-24 07:17:00,73.7,72.8,29.73,SE,144,0.0,0.0,97,0.00,,---,0.00,VWS V14.01,2013-07-24 11:17:00,
2013-07-24 07:22:00,74.0,73.1,29.73,NW,309,0.0,1.0,97,0.00,,---,0.00,VWS V14.01,2013-07-24 11:22:00,
2013-07-24 07:27:00,74.3,73.4,29.73,SW,236,0.0,1.0,97,0.00,,---,0.00,VWS V14.01,2013-07-24 11:27:00,
2013-07-24 07:32:00,74.4,73.5,29.73,SW,235,0.0,0.0,97,0.00,,---,0.00,VWS V14.01,2013-07-24 11:32:00,
2013-07-24 07:37:00,74.7,73.8,29.74,West,264,0.0,0.0,97,0.00,,---,0.00,VWS V14.01,2013-07-24 11:37:00,
2013-07-24 07:42:00,74.9,74.0,29.74,West,264,0.0,1.0,97,0.00,,---,0.00,VWS V14.01,2013-07-24 11:42:00,
2013-07-24 07:47:00,75.1,74.2,29.74,West,264,0.0,0.0,97,0.00,,---,0.00,VWS V14.01,2013-07-24 11:47:00,
2013-07-24 07:52:00,75.3,74.4,29.74,West,264,0.0,0.0,97,0.00,,---,0.00,VWS V14.01,2013-07-24 11:52:00,
2013-07-24 07:57:00,75.6,74.7,29.74,SSW,208,0.0,2.0,97,0.00,,---,0.00,VWS V14.01,2013-07-24 11:57:00,
2013-07-24 08:02:00,75.9,75.0,29.74,SW,219,1.0,1.0,97,0.00,,---,0.00,VWS V14.01,2013-07-24 12:02:00,
2013-07-24 08:07:00,76.2,75.0,29.75,WNW,300,0.0,2.0,96,0.00,,---,0.00,VWS V14.01,2013-07-24 12:07:00,
2013-07-24 08:12:00,76.6,75.4,29.75,WNW,296,0.0,1.0,96,0.00,,---,0.00,VWS V14.01,2013-07-24 12:12:00,
2013-07-24 08:17:00,77.1,75.6,29.75,NNW,336,1.0,1.0,95,0.00,,---,0.00,VWS V14.01,2013-07-24 12:17:00,
2013-07-24 08:22:00,77.7,75.8,29.75,NNW,336,0.0,1.0,94,0.00,,---,0.00,VWS V14.01,2013-07-24 12:22:00,
2013-07-24 08:27:00,78.2,75.7,29.75,NNW,336,0.0,0.0,92,0.00,,---,0.00,VWS V14.01,2013-07-24 12:27:00,
2013-07-24 08:32:00,78.7,75.9,29.75,NNW,336,0.0,1.0,91,0.00,,---,0.00,VWS V14.01,2013-07-24 12:32:00,
2013-07-24 08:37:00,79.3,75.8,29.75,NNW,336,0.0,1.0,89,0.00,,---,0.00,VWS V14.01,2013-07-24 12:37:00,
2013-07-24 08:42:00,79.9,75.7,29.75,West,267,0.0,3.0,87,0.00,,---,0.00,VWS V14.01,2013-07-24 12:42:00,
2013-07-24 08:47:00,80.5,75.2,29.74,NW,312,4.0,4.0,84,0.00,,---,0.00,VWS V14.01,2013-07-24 12:47:00,
2013-07-24 08:52:00,80.9,74.9,29.74,WNW,290,0.0,0.0,82,0.00,,---,0.00,VWS V14.01,2013-07-24 12:52:00,
2013-07-24 08:57:00,81.4,75.4,29.74,WNW,290,0.0,1.0,82,0.00,,---,0.00,VWS V14.01,2013-07-24 12:57:00,
2013-07-24 09:02:00,81.9,75.1,29.74,North,5,3.0,3.0,80,0.00,,---,0.00,VWS V14.01,2013-07-24 13:02:00,
2013-07-24 09:07:00,82.4,75.6,29.75,NW,324,0.0,5.0,80,0.00,,---,0.00,VWS V14.01,2013-07-24 13:07:00,
2013-07-24 09:12:00,82.8,75.6,29.75,WNW,287,2.0,4.0,79,0.00,,---,0.00,VWS V14.01,2013-07-24 13:12:00,
2013-07-24 09:17:00,83.2,75.6,29.75,WNW,287,1.0,1.0,78,0.00,,---,0.00,VWS V14.01,2013-07-24 13:17:00,
2013-07-24 09:22:00,83.6,76.0,29.75,NW,315,0.0,3.0,78,0.00,,---,0.00,VWS V14.01,2013-07-24 13:22:00,
2013-07-24 09:27:00,84.0,76.0,29.75,WSW,248,0.0,1.0,77,0.00,,---,0.00,VWS V14.01,2013-07-24 13:27:00,
2013-07-24 09:32:00,84.3,76.3,29.76,NNW,327,0.0,3.0,77,0.00,,---,0.00,VWS V14.01,2013-07-24 13:32:00,
2013-07-24 09:37:00,84.7,75.5,29.75,NW,306,5.0,7.0,74,0.00,,---,0.00,VWS V14.01,2013-07-24 13:37:00,
2013-07-24 09:42:00,84.9,75.3,29.76,NW,315,0.0,7.0,73,0.00,,---,0.00,VWS V14.01,2013-07-24 13:42:00,
2013-07-24 09:47:00,85.0,75.4,29.76,NNW,329,2.0,3.0,73,0.00,,---,0.00,VWS V14.01,2013-07-24 13:47:00,
2013-07-24 09:52:00,85.1,75.9,29.76,North,9,0.0,1.0,74,0.00,,---,0.00,VWS V14.01,2013-07-24 13:52:00,
2013-07-24 09:57:00,85.4,75.8,29.76,NW,315,0.0,4.0,73,0.00,,---,0.00,VWS V14.01,2013-07-24 13:57:00,
2013-07-24 10:02:00,85.8,76.2,29.76,NW,306,0.0,4.0,73,0.00,,---,0.00,VWS V14.01,2013-07-24 14:02:00,
2013-07-24 10:07:00,86.1,76.0,29.76,NW,314,1.0,3.0,72,0.00,,---,0.00,VWS V14.01,2013-07-24 14:07:00,
2013-07-24 10:12:00,86.2,75.7,29.76,NNW,333,0.0,1.0,71,0.00,,---,0.00,VWS V14.01,2013-07-24 14:12:00,
2013-07-24 10:17:00,86.5,76.0,29.77,NW,324,0.0,4.0,71,0.00,,---,0.00,VWS V14.01,2013-07-24 14:17:00,
2013-07-24 10:22:00,86.9,76.8,29.77,North,5,0.0,3.0,72,0.00,,---,0.00,VWS V14.01,2013-07-24 14:22:00,
2013-07-24 10:27:00,87.1,76.6,29.77,NW,320,4.0,4.0,71,0.00,,---,0.00,VWS V14.01,2013-07-24 14:27:00,
2013-07-24 10:32:00,87.2,75.8,29.77,NW,320,0.0,0.0,69,0.00,,---,0.00,VWS V14.01,2013-07-24 14:32:00,
2013-07-24 10:37:00,87.5,76.1,29.77,NW,321,1.0,3.0,69,0.00,,---,0.00,VWS V14.01,2013-07-24 14:37:00,
2013-07-24 10:42:00,87.6,76.2,29.77,WSW,249,1.0,7.0,69,0.00,,---,0.00,VWS V14.01,2013-07-24 14:42:00,
2013-07-24 10:47:00,87.7,75.8,29.77,NW,314,0.0,3.0,68,0.00,,---,0.00,VWS V14.01,2013-07-24 14:47:00,
2013-07-24 10:52:00,87.9,76.9,29.77,WSW,253,0.0,1.0,70,0.00,,---,0.00,VWS V14.01,2013-07-24 14:52:00,
2013-07-24 10:57:00,88.3,76.0,29.77,WSW,258,0.0,2.0,67,0.00,,---,0.00,VWS V14.01,2013-07-24 14:57:00,
2013-07-24 11:02:00,88.5,76.6,29.77,NW,304,0.0,4.0,68,0.00,,---,0.00,VWS V14.01,2013-07-24 15:02:00,
2013-07-24 11:07:00,88.7,76.3,29.77,WNW,303,4.0,5.0,67,0.00,,---,0.00,VWS V14.01,2013-07-24 15:07:00,
2013-07-24 11:12:00,88.7,76.3,29.77,WSW,256,0.0,4.0,67,0.00,,---,0.00,VWS V14.01,2013-07-24 15:12:00,
2013-07-24 11:17:00,88.8,76.4,29.77,NW,323,0.0,4.0,67,0.00,,---,0.00,VWS V14.01,2013-07-24 15:17:00,
2013-07-24 11:22:00,89.0,76.2,29.77,SSW,211,0.0,3.0,66,0.00,,---,0.00,VWS V14.01,2013-07-24 15:22:00,
2013-07-24 11:27:00,89.1,76.3,29.77,NW,313,0.0,4.0,66,0.00,,---,0.00,VWS V14.01,2013-07-24 15:27:00,
2013-07-24 11:32:00,89.2,77.3,29.77,NW,317,4.0,4.0,68,0.00,,---,0.00,VWS V14.01,2013-07-24 15:32:00,
2013-07-24 11:37:00,88.9,75.6,29.78,NNW,344,3.0,9.0,65,0.00,,---,0.00,VWS V14.01,2013-07-24 15:37:00,
2013-07-24 11:42:00,88.7,75.9,29.77,NW,319,4.0,6.0,66,0.00,,---,0.00,VWS V14.01,2013-07-24 15:42:00,
2013-07-24 11:47:00,88.6,75.8,29.77,NW,322,4.0,5.0,66,0.00,,---,0.00,VWS V14.01,2013-07-24 15:47:00,
2013-07-24 11:52:00,88.8,75.5,29.77,NW,323,3.0,6.0,65,0.00,,---,0.00,VWS V14.01,2013-07-24 15:52:00,
2013-07-24 11:57:00,89.1,76.7,29.77,NW,313,1.0,1.0,67,0.00,,---,0.00,VWS V14.01,2013-07-24 15:57:00,
2013-07-24 12:02:00,89.2,76.4,29.77,NW,319,0.0,3.0,66,0.00,,---,0.00,VWS V14.01,2013-07-24 16:02:00,
2013-07-24 12:07:00,89.1,75.3,29.77,North,355,0.0,3.0,64,0.00,,---,0.00,VWS V14.01,2013-07-24 16:07:00,
2013-07-24 12:12:00,88.9,76.1,29.77,NNW,329,4.0,6.0,66,0.00,,---,0.00,VWS V14.01,2013-07-24 16:12:00,
2013-07-24 12:17:00,88.4,74.7,29.77,North,355,0.0,4.0,64,0.00,,---,0.00,VWS V14.01,2013-07-24 16:17:00,
2013-07-24 12:22:00,88.1,75.3,29.78,NE,44,4.0,6.0,66,0.00,,---,0.00,VWS V14.01,2013-07-24 16:22:00,
2013-07-24 12:27:00,88.0,75.7,29.78,North,355,1.0,6.0,67,0.00,,---,0.00,VWS V14.01,2013-07-24 16:27:00,
2013-07-24 12:32:00,88.1,75.3,29.78,North,351,0.0,4.0,66,0.00,,---,0.00,VWS V14.01,2013-07-24 16:32:00,
2013-07-24 12:37:00,88.4,76.1,29.78,NNW,340,1.0,3.0,67,0.00,,---,0.00,VWS V14.01,2013-07-24 16:37:00,
2013-07-24 12:42:00,88.6,75.3,29.77,NNW,331,0.0,1.0,65,0.00,,---,0.00,VWS V14.01,2013-07-24 16:42:00,
2013-07-24 12:47:00,88.8,75.5,29.78,NNW,335,0.0,4.0,65,0.00,,---,0.00,VWS V14.01,2013-07-24 16:47:00,
2013-07-24 12:52:00,88.9,76.5,29.78,North,5,7.0,7.0,67,0.00,,---,0.00,VWS V14.01,2013-07-24 16:52:00,
2013-07-24 12:57:00,88.1,77.1,29.78,NNW,336,7.0,10.0,70,0.00,,---,0.00,VWS V14.01,2013-07-24 16:57:00,
2013-07-24 13:02:00,87.1,77.4,29.78,NNW,337,7.0,11.0,73,0.00,,---,0.00,VWS V14.01,2013-07-24 17:02:00,
2013-07-24 13:07:00,86.6,76.1,29.78,North,350,2.0,11.0,71,0.00,,---,0.00,VWS V14.01,2013-07-24 17:07:00,
2013-07-24 13:12:00,86.5,76.8,29.78,NNE,32,10.0,10.0,73,0.00,,---,0.00,VWS V14.01,2013-07-24 17:12:00,
2013-07-24 13:17:00,86.0,76.3,29.78,North,11,5.0,7.0,73,0.00,,---,0.00,VWS V14.01,2013-07-24 17:17:00,
2013-07-24 13:22:00,85.6,76.0,29.78,North,10,3.0,9.0,73,0.00,,---,0.00,VWS V14.01,2013-07-24 17:22:00,
2013-07-24 13:27:00,85.4,75.8,29.78,North,355,9.0,10.0,73,0.00,,---,0.00,VWS V14.01,2013-07-24 17:27:00,
2013-07-24 13:32:00,85.4,75.8,29.78,North,11,5.0,7.0,73,0.00,,---,0.00,VWS V14.01,2013-07-24 17:32:00,
2013-07-24 13:37:00,85.4,74.9,29.78,NNE,21,6.0,12.0,71,0.00,,---,0.00,VWS V14.01,2013-07-24 17:37:00,
2013-07-24 13:42:00,85.4,74.9,29.78,NNE,30,6.0,10.0,71,0.00,,---,0.00,VWS V14.01,2013-07-24 17:42:00,
2013-07-24 13:47:00,85.3,75.2,29.78,North,350,4.0,9.0,72,0.00,,---,0.00,VWS V14.01,2013-07-24 17:47:00,
2013-07-24 13:52:00,85.6,75.5,29.78,NNE,29,5.0,5.0,72,0.00,,---,0.00,VWS V14.01,2013-07-24 17:52:00,
2013-07-24 13:57:00,85.8,75.3,29.78,NNE,15,5.0,9.0,71,0.00,,---,0.00,VWS V14.01,2013-07-24 17:57:00,
2013-07-24 14:02:00,85.9,75.0,29.78,NNE,16,6.0,12.0,70,0.00,,---,0.00,VWS V14.01,2013-07-24 18:02:00,
2013-07-24 14:07:00,86.0,75.9,29.78,North,355,3.0,5.0,72,0.00,,---,0.00,VWS V14.01,2013-07-24 18:07:00,
2013-07-24 14:12:00,86.1,76.0,29.78,NNW,348,0.0,7.0,72,0.00,,---,0.00,VWS V14.01,2013-07-24 18:12:00,
2013-07-24 14:17:00,86.2,74.4,29.77,NNW,340,4.0,11.0,68,0.00,,---,0.00,VWS V14.01,2013-07-24 18:17:00,
2013-07-24 14:22:00,86.0,75.5,29.77,NE,48,6.0,10.0,71,0.00,,---,0.00,VWS V14.01,2013-07-24 18:22:00,
2013-07-24 14:27:00,85.7,74.8,29.78,North,355,4.0,6.0,70,0.00,,---,0.00,VWS V14.01,2013-07-24 18:27:00,
2013-07-24 14:32:00,85.4,74.9,29.78,North,5,3.0,9.0,71,0.00,,---,0.00,VWS V14.01,2013-07-24 18:32:00,
2013-07-24 14:37:00,85.2,75.2,29.78,North,360,7.0,8.0,72,0.00,,---,0.00,VWS V14.01,2013-07-24 18:37:00,
2013-07-24 14:42:00,85.2,75.2,29.78,NE,39,4.0,11.0,72,0.00,,---,0.00,VWS V14.01,2013-07-24 18:42:00,
2013-07-24 14:47:00,85.4,75.3,29.77,North,360,4.0,6.0,72,0.00,,---,0.00,VWS V14.01,2013-07-24 18:47:00,
2013-07-24 14:52:00,85.5,75.4,29.78,NNE,32,6.0,9.0,72,0.00,,---,0.00,VWS V14.01,2013-07-24 18:52:00,
2013-07-24 14:57:00,85.4,74.9,29.77,NNE,22,4.0,6.0,71,0.00,,---,0.00,VWS V14.01,2013-07-24 18:57:00,
2013-07-24 15:02:00,85.4,76.2,29.77,NNE,32,7.0,10.0,74,0.00,,---,0.00,VWS V14.01,2013-07-24 19:02:00,
2013-07-24 15:07:00,85.6,75.1,29.77,North,5,9.0,12.0,71,0.00,,---,0.00,VWS V14.01,2013-07-24 19:07:00,
2013-07-24 15:12:00,85.6,75.5,29.77,NNW,348,2.0,5.0,72,0.00,,---,0.00,VWS V14.01,2013-07-24 19:12:00,
2013-07-24 15:17:00,85.9,75.4,29.77,North,10,6.0,6.0,71,0.00,,---,0.00,VWS V14.01,2013-07-24 19:17:00,
2013-07-24 15:22:00,86.0,75.1,29.77,North,350,3.0,10.0,70,0.00,,---,0.00,VWS V14.01,2013-07-24 19:22:00,
2013-07-24 15:27:00,86.1,75.2,29.77,North,5,3.0,7.0,70,0.00,,---,0.00,VWS V14.01,2013-07-24 19:27:00,
2013-07-24 15:32:00,86.0,75.5,29.77,NNE,15,9.0,9.0,71,0.00,,---,0.00,VWS V14.01,2013-07-24 19:32:00,
2013-07-24 15:37:00,85.9,75.8,29.77,North,355,2.0,5.0,72,0.00,,---,0.00,VWS V14.01,2013-07-24 19:37:00,
2013-07-24 15:42:00,85.9,75.4,29.76,North,355,5.0,6.0,71,0.00,,---,0.00,VWS V14.01,2013-07-24 19:42:00,
2013-07-24 15:47:00,86.2,75.7,29.76,NNW,336,5.0,7.0,71,0.00,,---,0.00,VWS V14.01,2013-07-24 19:47:00,
2013-07-24 15:52:00,86.3,75.4,29.76,NW,324,3.0,8.0,70,0.00,,---,0.00,VWS V14.01,2013-07-24 19:52:00,
2013-07-24 15:57:00,86.2,75.7,29.76,NNE,17,4.0,5.0,71,0.00,,---,0.00,VWS V14.01,2013-07-24 19:57:00,
2013-07-24 16:02:00,86.2,76.1,29.77,NNE,13,0.0,4.0,72,0.00,,---,0.00,VWS V14.01,2013-07-24 20:02:00,
2013-07-24 16:07:00,86.1,74.8,29.77,North,355,5.0,10.0,69,0.00,,---,0.00,VWS V14.01,2013-07-24 20:07:00,
2013-07-24 16:12:00,85.8,74.5,29.77,North,9,3.0,9.0,69,0.00,,---,0.00,VWS V14.01,2013-07-24 20:12:00,
2013-07-24 16:17:00,85.7,74.4,29.77,NNE,23,3.0,6.0,69,0.00,,---,0.00,VWS V14.01,2013-07-24 20:17:00,
2013-07-24 16:22:00,85.5,74.6,29.77,North,360,2.0,7.0,70,0.00,,---,0.00,VWS V14.01,2013-07-24 20:22:00,
2013-07-24 16:27:00,85.3,74.4,29.77,North,355,5.0,5.0,70,0.00,,---,0.00,VWS V14.01,2013-07-24 20:27:00,
2013-07-24 16:32:00,85.0,75.0,29.77,NE,53,3.0,6.0,72,0.00,,---,0.00,VWS V14.01,2013-07-24 20:32:00,
2013-07-24 16:37:00,84.5,74.9,29.77,NE,34,2.0,4.0,73,0.00,,---,0.00,VWS V14.01,2013-07-24 20:37:00,
2013-07-24 16:42:00,84.2,75.4,29.76,NE,46,3.0,6.0,75,0.00,,---,0.00,VWS V14.01,2013-07-24 20:42:00,
2013-07-24 16:47:00,84.0,74.4,29.76,NNE,25,3.0,6.0,73,0.00,,---,0.00,VWS V14.01,2013-07-24 20:47:00,
2013-07-24 16:52:00,84.1,75.3,29.77,ENE,74,1.0,3.0,75,0.00,,---,0.00,VWS V14.01,2013-07-24 20:52:00,
2013-07-24 16:57:00,84.3,75.5,29.77,ENE,59,1.0,3.0,75,0.00,,---,0.00,VWS V14.01,2013-07-24 20:57:00,
2013-07-24 17:02:00,84.4,75.6,29.77,NNE,24,0.0,3.0,75,0.00,,---,0.00,VWS V14.01,2013-07-24 21:02:00,
2013-07-24 17:07:00,84.8,75.6,29.77,NNE,16,4.0,5.0,74,0.00,,---,0.00,VWS V14.01,2013-07-24 21:07:00,
2013-07-24 17:12:00,85.0,75.4,29.77,NE,53,5.0,5.0,73,0.00,,---,0.00,VWS V14.01,2013-07-24 21:12:00,
2013-07-24 17:17:00,84.8,74.8,29.77,NE,36,3.0,7.0,72,0.00,,---,0.00,VWS V14.01,2013-07-24 21:17:00,
2013-07-24 17:22:00,84.7,75.5,29.77,NE,52,3.0,4.0,74,0.00,,---,0.00,VWS V14.01,2013-07-24 21:22:00,
2013-07-24 17:27:00,84.5,74.9,29.77,NNE,17,2.0,4.0,73,0.00,,---,0.00,VWS V14.01,2013-07-24 21:27:00,
2013-07-24 17:32:00,84.4,74.8,29.77,NE,41,4.0,4.0,73,0.00,,---,0.00,VWS V14.01,2013-07-24 21:32:00,
2013-07-24 17:37:00,84.3,75.5,29.78,NNE,13,4.0,6.0,75,0.00,,---,0.00,VWS V14.01,2013-07-24 21:37:00,
2013-07-24 17:42:00,84.2,75.4,29.77,NE,42,4.0,6.0,75,0.00,,---,0.00,VWS V14.01,2013-07-24 21:42:00,
2013-07-24 17:47:00,84.1,75.3,29.77,NNE,28,4.0,6.0,75,0.00,,---,0.00,VWS V14.01,2013-07-24 21:47:00,
2013-07-24 17:52:00,83.9,75.5,29.77,NE,48,3.0,4.0,76,0.00,,---,0.00,VWS V14.01,2013-07-24 21:52:00,
2013-07-24 17:57:00,83.7,75.7,29.77,NE,47,3.0,3.0,77,0.00,,---,0.00,VWS V14.01,2013-07-24 21:57:00,
2013-07-24 18:02:00,83.6,75.6,29.78,NE,46,0.0,2.0,77,0.00,,---,0.00,VWS V14.01,2013-07-24 22:02:00,
2013-07-24 18:07:00,83.4,76.2,29.78,NNE,29,0.0,1.0,79,0.00,,---,0.00,VWS V14.01,2013-07-24 22:07:00,
2013-07-24 18:12:00,83.3,75.7,29.78,NNE,29,1.0,3.0,78,0.00,,---,0.00,VWS V14.01,2013-07-24 22:12:00,
2013-07-24 18:17:00,83.1,75.5,29.78,NNE,33,0.0,1.0,78,0.00,,---,0.00,VWS V14.01,2013-07-24 22:17:00,
2013-07-24 18:22:00,82.9,75.7,29.77,NE,40,0.0,1.0,79,0.00,,---,0.00,VWS V14.01,2013-07-24 22:22:00,
2013-07-24 18:27:00,82.8,75.6,29.78,NNE,17,0.0,2.0,79,0.00,,---,0.00,VWS V14.01,2013-07-24 22:27:00,
2013-07-24 18:32:00,82.7,75.5,29.78,North,5,0.0,3.0,79,0.00,,---,0.00,VWS V14.01,2013-07-24 22:32:00,
2013-07-24 18:37:00,82.7,75.5,29.77,North,5,5.0,6.0,79,0.00,,---,0.00,VWS V14.01,2013-07-24 22:37:00,
2013-07-24 18:42:00,82.5,74.9,29.77,North,351,3.0,7.0,78,0.00,,---,0.00,VWS V14.01,2013-07-24 22:42:00,
2013-07-24 18:47:00,82.2,74.7,29.77,NNE,13,9.0,9.0,78,0.00,,---,0.00,VWS V14.01,2013-07-24 22:47:00,
2013-07-24 18:52:00,82.1,74.9,29.77,NNW,345,6.0,7.0,79,0.00,,---,0.00,VWS V14.01,2013-07-24 22:52:00,
2013-07-24 18:57:00,81.8,73.9,29.77,NNE,18,5.0,13.0,77,0.00,,---,0.00,VWS V14.01,2013-07-24 22:57:00,
2013-07-24 19:02:00,81.5,73.6,29.78,North,349,4.0,9.0,77,0.00,,---,0.00,VWS V14.01,2013-07-24 23:02:00,
2013-07-24 19:07:00,81.4,73.5,29.78,NNW,346,6.0,7.0,77,0.00,,---,0.00,VWS V14.01,2013-07-24 23:07:00,
2013-07-24 19:12:00,81.2,73.3,29.78,North,355,7.0,8.0,77,0.00,,---,0.00,VWS V14.01,2013-07-24 23:12:00,
2013-07-24 19:17:00,81.0,73.1,29.79,NNW,347,2.0,6.0,77,0.00,,---,0.00,VWS V14.01,2013-07-24 23:17:00,
2013-07-24 19:22:00,80.8,73.3,29.79,NNE,19,2.0,5.0,78,0.00,,---,0.00,VWS V14.01,2013-07-24 23:22:00,
2013-07-24 19:27:00,80.6,73.1,29.79,North,355,5.0,6.0,78,0.00,,---,0.00,VWS V14.01,2013-07-24 23:27:00,
2013-07-24 19:32:00,80.4,73.3,29.79,NE,51,3.0,7.0,79,0.00,,---,0.00,VWS V14.01,2013-07-24 23:32:00,
2013-07-24 19:37:00,80.3,73.6,29.80,NNE,18,4.0,4.0,80,0.00,,---,0.00,VWS V14.01,2013-07-24 23:37:00,
2013-07-24 19:42:00,80.1,73.4,29.80,NNE,23,3.0,4.0,80,0.00,,---,0.00,VWS V14.01,2013-07-24 23:42:00,
2013-07-24 19:47:00,79.9,73.6,29.80,North,360,2.0,4.0,81,0.00,,---,0.00,VWS V14.01,2013-07-24 23:47:00,
2013-07-24 19:52:00,79.8,73.4,29.80,North,355,0.0,4.0,81,0.00,,---,0.00,VWS V14.01,2013-07-24 23:52:00,
2013-07-24 19:57:00,79.8,73.4,29.80,NNE,20,3.0,5.0,81,0.00,,---,0.00,VWS V14.01,2013-07-24 23:57:00,
2013-07-24 20:02:00,79.7,73.4,29.81,North,11,0.0,2.0,81,0.00,,---,0.00,VWS V14.01,2013-07-25 00:02:00,
2013-07-24 20:07:00,79.6,73.3,29.81,North,351,1.0,3.0,81,0.00,,---,0.00,VWS V14.01,2013-07-25 00:07:00,
2013-07-24 20:12:00,79.5,73.2,29.81,NNE,16,5.0,7.0,81,0.00,,---,0.00,VWS V14.01,2013-07-25 00:12:00,
2013-07-24 20:17:00,79.3,73.3,29.81,NNE,21,1.0,5.0,82,0.00,,---,0.00,VWS V14.01,2013-07-25 00:17:00,
2013-07-24 20:22:00,79.1,73.1,29.82,NNE,13,0.0,3.0,82,0.00,,---,0.00,VWS V14.01,2013-07-25 00:22:00,
2013-07-24 20:27:00,78.8,73.6,29.82,NNE,16,0.0,0.0,84,0.00,,---,0.00,VWS V14.01,2013-07-25 00:27:00,
2013-07-24 20:32:00,78.6,73.4,29.82,NNE,16,0.0,0.0,84,0.00,,---,0.00,VWS V14.01,2013-07-25 00:32:00,
2013-07-24 20:37:00,78.3,73.4,29.82,NNE,16,0.0,0.0,85,0.00,,---,0.00,VWS V14.01,2013-07-25 00:37:00,
2013-07-24 20:42:00,77.9,73.0,29.83,NNE,16,0.0,2.0,85,0.00,,---,0.00,VWS V14.01,2013-07-25 00:42:00,
2013-07-24 20:47:00,77.8,73.3,29.83,NNE,16,0.0,3.0,86,0.00,,---,0.00,VWS V14.01,2013-07-25 00:47:00,
2013-07-24 20:52:00,77.7,73.2,29.83,NNE,16,0.0,4.0,86,0.00,,---,0.00,VWS V14.01,2013-07-25 00:52:00,
2013-07-24 20:57:00,77.7,73.2,29.83,NE,38,0.0,2.0,86,0.00,,---,0.00,VWS V14.01,2013-07-25 00:57:00,
2013-07-24 21:02:00,77.6,73.1,29.83,NE,40,0.0,2.0,86,0.00,,---,0.00,VWS V14.01,2013-07-25 01:02:00,
2013-07-24 21:07:00,77.6,73.1,29.84,ENE,59,3.0,6.0,86,0.00,,---,0.00,VWS V14.01,2013-07-25 01:07:00,
2013-07-24 21:12:00,77.5,73.0,29.84,ENE,58,0.0,4.0,86,0.00,,---,0.00,VWS V14.01,2013-07-25 01:12:00,
2013-07-24 21:17:00,77.5,73.0,29.84,NE,36,2.0,4.0,86,0.00,,---,0.00,VWS V14.01,2013-07-25 01:17:00,
2013-07-24 21:22:00,77.4,72.9,29.84,NNE,30,2.0,5.0,86,0.00,,---,0.00,VWS V14.01,2013-07-25 01:22:00,
2013-07-24 21:27:00,77.3,72.8,29.83,NE,39,1.0,5.0,86,0.00,,---,0.00,VWS V14.01,2013-07-25 01:27:00,
2013-07-24 21:32:00,77.1,72.6,29.83,NE,39,1.0,5.0,86,0.00,,---,0.00,VWS V14.01,2013-07-25 01:32:00,
2013-07-24 21:37:00,77.0,72.5,29.83,NE,40,2.0,3.0,86,0.00,,---,0.00,VWS V14.01,2013-07-25 01:37:00,
2013-07-24 21:42:00,76.8,72.3,29.84,NE,40,2.0,2.0,86,0.00,,---,0.00,VWS V14.01,2013-07-25 01:42:00,
2013-07-24 21:47:00,76.6,72.1,29.84,NE,40,0.0,1.0,86,0.00,,---,0.00,VWS V14.01,2013-07-25 01:47:00,
2013-07-24 21:52:00,76.5,72.3,29.84,NE,40,0.0,1.0,87,0.00,,---,0.00,VWS V14.01,2013-07-25 01:52:00,
2013-07-24 21:57:00,76.4,72.2,29.84,NE,38,0.0,3.0,87,0.00,,---,0.00,VWS V14.01,2013-07-25 01:57:00,
2013-07-24 22:02:00,76.3,72.2,29.84,North,11,3.0,4.0,87,0.00,,---,0.00,VWS V14.01,2013-07-25 02:02:00,
2013-07-24 22:07:00,76.4,72.2,29.84,North,5,0.0,5.0,87,0.00,,---,0.00,VWS V14.01,2013-07-25 02:07:00,
2013-07-24 22:12:00,76.5,72.0,29.84,NNE,22,0.0,5.0,86,0.00,,---,0.00,VWS V14.01,2013-07-25 02:12:00,
2013-07-24 22:17:00,76.5,72.0,29.84,NE,35,3.0,5.0,86,0.00,,---,0.00,VWS V14.01,2013-07-25 02:17:00,
2013-07-24 22:22:00,76.5,71.7,29.84,NNE,30,5.0,10.0,85,0.00,,---,0.00,VWS V14.01,2013-07-25 02:22:00,
2013-07-24 22:27:00,76.6,71.8,29.84,NNE,26,0.0,6.0,85,0.00,,---,0.00,VWS V14.01,2013-07-25 02:27:00,
2013-07-24 22:32:00,76.6,71.4,29.84,NNW,344,3.0,9.0,84,0.00,,---,0.00,VWS V14.01,2013-07-25 02:32:00,
2013-07-24 22:37:00,76.8,71.6,29.84,NNW,336,2.0,7.0,84,0.00,,---,0.00,VWS V14.01,2013-07-25 02:37:00,
2013-07-24 22:42:00,77.0,71.4,29.84,NNW,342,6.0,8.0,83,0.00,,---,0.00,VWS V14.01,2013-07-25 02:42:00,
2013-07-24 22:47:00,77.1,71.5,29.85,NNW,344,1.0,6.0,83,0.00,,---,0.00,VWS V14.01,2013-07-25 02:47:00,
2013-07-24 22:52:00,77.2,71.3,29.84,North,351,6.0,10.0,82,0.00,,---,0.00,VWS V14.01,2013-07-25 02:52:00,
2013-07-24 22:57:00,77.3,71.4,29.84,NNW,342,5.0,6.0,82,0.00,,---,0.00,VWS V14.01,2013-07-25 02:57:00,
2013-07-24 23:02:00,77.3,71.4,29.85,North,360,4.0,5.0,82,0.00,,---,0.00,VWS V14.01,2013-07-25 03:02:00,
2013-07-24 23:08:00,77.3,71.7,29.85,NW,321,3.0,7.0,83,0.00,,---,0.00,VWS V14.01,2013-07-25 03:08:00,
2013-07-24 23:13:00,77.2,71.6,29.84,NE,37,4.0,7.0,83,0.00,,---,0.00,VWS V14.01,2013-07-25 03:13:00,
2013-07-24 23:18:00,77.0,71.8,29.84,North,351,6.0,9.0,84,0.00,,---,0.00,VWS V14.01,2013-07-25 03:18:00,
2013-07-24 23:23:00,76.8,71.6,29.84,North,350,1.0,6.0,84,0.00,,---,0.00,VWS V14.01,2013-07-25 03:23:00,
2013-07-24 23:28:00,76.6,71.8,29.84,North,360,5.0,5.0,85,0.00,,---,0.00,VWS V14.01,2013-07-25 03:28:00,
2013-07-24 23:33:00,76.5,72.0,29.85,NNE,32,0.0,4.0,86,0.00,,---,0.00,VWS V14.01,2013-07-25 03:33:00,
2013-07-24 23:38:00,76.2,72.1,29.85,NNE,32,0.0,3.0,87,0.01,,---,0.01,VWS V14.01,2013-07-25 03:38:00,
2013-07-24 23:43:00,76.0,71.9,29.86,NNE,32,0.0,0.0,87,0.01,,---,0.01,VWS V14.01,2013-07-25 03:43:00,
2013-07-24 23:48:00,75.8,72.0,29.87,NNE,32,0.0,1.0,88,0.01,,---,0.01,VWS V14.01,2013-07-25 03:48:00,
2013-07-24 23:54:00,75.8,72.3,29.86,NNW,343,0.0,3.0,89,0.01,,---,0.01,VWS V14.01,2013-07-25 03:54:00,
2013-07-24 23:58:00,75.6,72.1,29.86,NW,325,0.0,3.0,89,0.02,,---,0.02,VWS V14.01,2013-07-25 03:58:00,